Montpelier, VT

6:58 AM EDT on June 26, 2017 (GMT -0400)
Knapp State

Weather History for KMPV - April, 2015

Change the Weather History Date:

Monday, April 13, 2015

  Actual Average Record
Temperature  
Mean Temperature 48 °F 41 °F  
Max Temperature 69 °F 52 °F 79 °F (1968)
Min Temperature 26 °F 31 °F 11 °F (1973)
Degree Days  
Heating Degree Days 17 24  
Month to date heating degree days 385 343  
Since 1 July heating degree days 8044 7368  
Cooling Degree Days 0 0  
Month to date cooling degree days 0 0  
Year to date cooling degree days 0 0  
Moisture  
Dew Point 30 °F    
Average Humidity 57    
Maximum Humidity 92    
Minimum Humidity 21    
Precipitation  
Precipitation T in 0.09 in 1.14 in (2002)
Month to date precipitation 0.92 1.12  
Year to date precipitation 4.63 8.00  
Sea Level Pressure  
Sea Level Pressure 30.21 in    
Wind  
Wind Speed 9 mph (South)    
Max Wind Speed 22 mph    
Max Gust Speed 32 mph    
Visibility 10 miles    
Events      
T = Trace of Precipitation, MM = Missing Value Source: NWS Daily Summary

Daily Weather History Graph

Daily Weather History Graph

Search for Another Location

Airport or City:

Trip Planner

Search our weather history database for the weather conditions in past years. The results will help you decide how hot, cold, wet, or windy it might be!

Date:

Astronomy

Apr. 13, 2015 Rise Set
Actual Time 6:10 AM EDT 7:31 PM EDT
Civil Twilight 5:40 AM EDT 8:01 PM EDT
Nautical Twilight 5:04 AM EDT 8:38 PM EDT
Astronomical Twilight 4:26 AM EDT 9:16 PM EDT
Moon 2:57 AM EDT (4/13) 1:34 PM EDT (4/13)
Length of Visible Light 14h 21m
Length of Day
13h 21m
Waning Crescent, 33% of the Moon is Illuminated
Apr 13
Waning Crescent
Apr 18
New
Apr 25
First Quarter
May 3
Full
May 11
Last Quarter

Hourly Weather History & Observations

Time (EDT) Temp. Dew Point Humidity Pressure Visibility Wind Dir Wind Speed Gust Speed Precip Events Conditions
12:51 AM 35.1 °F 27.0 °F 72% 30.32 in 10.0 mi Calm Calm - N/A   Clear
1:51 AM 32.0 °F 26.1 °F 79% 30.32 in 10.0 mi Calm Calm - N/A   Clear
2:51 AM 30.0 °F 25.0 °F 82% 30.31 in 10.0 mi Calm Calm - N/A   Clear
3:51 AM 30.9 °F 26.1 °F 82% 30.32 in 10.0 mi Calm Calm - N/A   Clear
4:51 AM 28.9 °F 25.0 °F 85% 30.34 in 10.0 mi Calm Calm - N/A   Clear
5:51 AM 28.0 °F 25.0 °F 88% 30.35 in 10.0 mi Calm Calm - N/A   Clear
6:51 AM 28.9 °F 26.1 °F 89% 30.36 in 10.0 mi Calm Calm - N/A   Clear
7:51 AM 35.1 °F 28.9 °F 78% 30.36 in 10.0 mi Calm Calm - N/A   Clear
8:51 AM 39.9 °F 30.0 °F 68% 30.35 in 10.0 mi Calm Calm - N/A   Clear
9:51 AM 48.0 °F 32.0 °F 54% 30.32 in 10.0 mi Calm Calm - N/A   Clear
10:51 AM 59.0 °F 30.0 °F 33% 30.28 in 10.0 mi South 13.8 mph - N/A   Clear
11:51 AM 62.1 °F 28.9 °F 29% 30.26 in 10.0 mi South 12.7 mph 20.7 mph N/A   Clear
12:51 PM 64.0 °F 28.0 °F 26% 30.23 in 10.0 mi South 13.8 mph 23.0 mph N/A   Clear
1:51 PM 66.0 °F 28.0 °F 24% 30.20 in 10.0 mi South 15.0 mph 24.2 mph N/A   Clear
2:51 PM 68.0 °F 28.0 °F 22% 30.17 in 10.0 mi South 10.4 mph 21.9 mph N/A   Clear
3:51 PM 68.0 °F 27.0 °F 21% 30.14 in 10.0 mi SSE 16.1 mph - N/A   Clear
4:51 PM 69.1 °F 30.0 °F 23% 30.12 in 10.0 mi South 12.7 mph - N/A   Clear
5:51 PM 66.0 °F 32.0 °F 28% 30.08 in 10.0 mi SSE 18.4 mph 25.3 mph N/A   Clear
6:51 PM 63.0 °F 34.0 °F 34% 30.06 in 10.0 mi South 17.3 mph - N/A   Clear
7:51 PM 60.1 °F 35.1 °F 39% 30.04 in 10.0 mi South 17.3 mph - N/A   Clear
8:51 PM 59.0 °F 36.0 °F 42% 30.03 in 10.0 mi SSE 18.4 mph - N/A   Clear
9:51 PM 57.0 °F 35.1 °F 44% 30.03 in 10.0 mi South 16.1 mph 28.8 mph N/A   Clear
10:51 PM 55.0 °F 35.1 °F 47% 29.99 in 10.0 mi South 12.7 mph 23.0 mph N/A   Clear
11:51 PM 55.0 °F 36.0 °F 49% 29.97 in 10.0 mi South 6.9 mph 17.3 mph N/A   Clear